Location: Paris
(48.6709°N, 2.3750°E)
Time: 05:52:17
(UTC+02:00)

QB50P2 - Pass Details

Date: 27 June 2022
Orbit: 590 x 605 km, 97.9° (Epoch: 13 August)

Event Time Altitude Azimuth Distance (km) Brightness Sun altitude
Rises 04:34:07 0° 1° (N) 2,856 ? -9.6°
Reaches altitude 10° 04:36:45 10° 345° (NNW) 1,952 ? -9.3°
Maximum altitude 04:39:49 20° 298° (WNW) 1,413 ? -9.0°
Drops below altitude 10° 04:42:53 10° 251° (WSW) 1,948 ? -8.7°
Enters shadow 04:43:23 - 247° (WSW) 2,100 ? -8.6°
